User: anonymous   Login
Location: Newark
(37.8444°N, 127.0614°E)
Time: 21:57:09
(UTC+00:00)
Language:

BEESAT 2 - Orbit

View from above orbital plane
View from above orbital plane
View from above satellite
View from above satellite

Ground track
Ground track

The orbit data is extracted from the following two-line orbital elements,

1 39136U 13015G   20027.46087501  .00000548  00000-0  37127-4 0  9995
2 39136  64.8707  44.4119 0030799 278.9193  80.8447 15.17295328373968
Epoch (UTC): 27 January 2020 11:03:39
Eccentricity: 0.0030799
inclination: 64.8707°
perigee height: 493 km
apogee height: 535 km
right ascension of ascending node: 44.4119°
argument of perigee: 278.9193°
revolutions per day: 15.17295328
mean anomaly at epoch: 80.8447°
orbit number at epoch: 37396

The dashed part of the orbit path shows where the satellite is in the earth's shadow,  

DLR